ONEWEB-0390

operational
NORAD ID: 50470 Int'l Des: 2021-132 Owner: ONEWEBN Country: UK Constellation: oneweb
LEOCIRCULARPOLARONEWEB_TYPE

About ONEWEB-0390

Description loading...

Live Position

Loading 3D Globe...

Upcoming Passes

Altitude History

Altitude vs Time

uPlot chart will show altitude changes over time

Two-Line Element Set

1 50470U 21132B 25250.18630147 .00000059 00000-0 11988-3 0 9993
2 50470 87.9040 62.1733 0001668 100.2874 259.8445 13.17648585180814
Epoch: Sep 7, 2025 • Age: 16 hours

Current Status

Altitude 1223.6 km
Velocity 7.24 km/s
Sub-Earth Point -84.43°S, 29.06°W
Launch Date Dec 27, 2021
Age 3.6 years
Type internet

Technical Details

Classification Payload
Mass 148.00 kg
Dry Mass 140.00 kg
Total Mass 148.00 kg
Length 1.30 m
Diameter 1.00 m
Span 5.00 m
Shape Trapezoid+2 pan
Manufacturer ONEWUS
Bus Type ARROW
Phase Status In Orbit
Owner/State ONEWEBN/UK

Large Constellations

Loading constellations...